Andrews AFB, MD

2:27 AM EDT on August 19, 2017 (GMT -0400)
Andrews Air Force Base-Naf

Weather History for KADW - October, 2013

Change the Weather History Date:

Thursday, October 17, 2013

  Actual Average Record
Temperature  
Mean Temperature 66 °F -  
Max Temperature 75 °F 63 °F 82 °F (2016)
Min Temperature 59 °F 44 °F 39 °F (2004)
Cooling Degree Days 2    
Growing Degree Days 16 (Base 50)    
Moisture  
Dew Point 62 °F    
Average Humidity 83    
Maximum Humidity 100    
Minimum Humidity 64    
Precipitation  
Precipitation 0.00 in - - ()
Sea Level Pressure  
Sea Level Pressure 29.84 in    
Wind  
Wind Speed 8 mph (SSW)    
Max Wind Speed 18 mph    
Max Gust Speed 23 mph    
Visibility 10 miles    
Events Rain    
Averages and records for this station are not official NWS values.
T = Trace of Precipitation, MM = Missing Value Source: NWS Daily Summary

Daily Weather History Graph

Daily Weather History Graph

Search for Another Location

Airport or City:

Trip Planner

Search our weather history database for the weather conditions in past years. The results will help you decide how hot, cold, wet, or windy it might be!

Date:

Astronomy

Oct. 17, 2013 Rise Set
Actual Time 7:19 AM EDT 6:25 PM EDT
Civil Twilight 6:52 AM EDT 6:52 PM EDT
Nautical Twilight 6:21 AM EDT 7:23 PM EDT
Astronomical Twilight 5:50 AM EDT 7:54 PM EDT
Moon 5:38 PM EDT (10/17) 5:49 AM EDT (10/17)
Length of Visible Light 12h 00m
Length of Day
11h 06m
Waxing Gibbous, 98% of the Moon is Illuminated
Oct 17
Waxing Gibbous
Oct 18
Full
Oct 26
Last Quarter
Nov 3
New
Nov 10
First Quarter

Hourly Weather History & Observations

Time (EDT) Temp. Dew Point Humidity Pressure Visibility Wind Dir Wind Speed Gust Speed Precip Events Conditions
12:58 AM 62.2 °F 60.8 °F 95% 29.94 in 10.0 mi South 5.8 mph - N/A   Clear
1:58 AM 61.7 °F 60.6 °F 96% 29.93 in 10.0 mi South 6.9 mph - N/A   Clear
2:58 AM 61.9 °F 61.2 °F 97% 29.92 in 10.0 mi SSW 5.8 mph - N/A   Clear
3:58 AM 61.0 °F 60.1 °F 97% 29.91 in 10.0 mi South 4.6 mph - N/A   Mostly Cloudy
4:58 AM 60.3 °F 59.7 °F 98% 29.91 in 9.0 mi South 4.6 mph - N/A   Clear
5:58 AM 59.2 °F 58.6 °F 98% 29.91 in 10.0 mi SSE 2.3 mph - N/A   Scattered Clouds
6:58 AM 60.1 °F 59.7 °F 99% 29.92 in 8.0 mi South 5.8 mph - N/A   Clear
7:48 AM 60.8 °F 60.8 °F 100% 29.91 in 8.0 mi South 5.8 mph - N/A Rain Light Rain
7:58 AM 60.8 °F 60.4 °F 99% 29.93 in 7.0 mi South 4.6 mph - 0.00 in Rain Light Rain
8:01 AM 60.8 °F 60.8 °F 100% 29.91 in 8.0 mi South 4.6 mph - N/A   Scattered Clouds
8:37 AM 62.6 °F 62.6 °F 100% 29.91 in 10.0 mi SSW 3.5 mph - N/A   Light Drizzle
8:47 AM 62.6 °F 62.6 °F 100% 29.91 in 10.0 mi SW 4.6 mph - N/A   Clear
8:58 AM 62.6 °F 62.2 °F 99% 29.93 in 10.0 mi SW 4.6 mph - 0.00 in   Clear
9:58 AM 66.0 °F 64.4 °F 94% 29.93 in 10.0 mi Variable 4.6 mph - N/A   Clear
10:58 AM 69.3 °F 63.0 °F 80% 29.89 in 10.0 mi East 2.3 mph - N/A   Clear
11:58 AM 73.6 °F 62.6 °F 68% 29.91 in 10.0 mi Variable 3.5 mph - N/A   Clear
12:58 PM 74.7 °F 61.9 °F 64% 29.87 in 10.0 mi East 8.1 mph - N/A   Clear
1:58 PM 74.3 °F 62.1 °F 65% 29.84 in 10.0 mi SSE 9.2 mph - N/A   Partly Cloudy
2:03 PM 73.4 °F 62.6 °F 69% 29.81 in 10.0 mi ESE 8.1 mph - N/A   Light Drizzle
2:26 PM 73.4 °F 62.6 °F 69% 29.82 in 10.0 mi SE 10.4 mph - N/A   Partly Cloudy
2:58 PM 74.1 °F 62.1 °F 66% 29.83 in 10.0 mi SSE 8.1 mph - 0.00 in   Partly Cloudy
3:58 PM 73.0 °F 61.3 °F 67% 29.82 in 10.0 mi South 10.4 mph - N/A   Partly Cloudy
4:58 PM 72.5 °F 63.7 °F 74% 29.80 in 10.0 mi South 10.4 mph - N/A   Scattered Clouds
5:18 PM 71.6 °F 64.4 °F 78% 29.78 in 10.0 mi South 11.5 mph - N/A   Mostly Cloudy
5:28 PM 71.6 °F 62.6 °F 73% 29.78 in 10.0 mi South 10.4 mph - N/A   Mostly Cloudy
5:58 PM 71.4 °F 63.3 °F 76% 29.78 in 10.0 mi South 10.4 mph - N/A   Scattered Clouds
6:58 PM 70.2 °F 62.8 °F 77% 29.77 in 10.0 mi South 9.2 mph - N/A   Mostly Cloudy
7:58 PM 69.6 °F 61.2 °F 74% 29.76 in 10.0 mi South 15.0 mph - N/A   Overcast
8:24 PM 69.8 °F 60.8 °F 73% 29.76 in 10.0 mi SSW 12.7 mph - N/A   Light Drizzle
8:33 PM 69.8 °F 60.8 °F 73% 29.76 in 10.0 mi SSW 13.8 mph - N/A   Scattered Clouds
8:53 PM 69.8 °F 60.8 °F 73% 29.76 in 10.0 mi SSW 16.1 mph 23.0 mph N/A   Mostly Cloudy
8:58 PM 69.8 °F 60.8 °F 73% 29.78 in 10.0 mi SSW 18.4 mph 23.0 mph 0.00 in   Mostly Cloudy
9:58 PM 68.7 °F 62.1 °F 79% 29.79 in 10.0 mi SW 16.1 mph 23.0 mph N/A   Overcast
10:34 PM 68.0 °F 62.6 °F 83% 29.78 in 10.0 mi SW 15.0 mph - N/A   Light Drizzle
10:36 PM 68.0 °F 62.6 °F 83% 29.78 in 10.0 mi SW 12.7 mph - N/A   Mostly Cloudy
10:41 PM 68.0 °F 62.6 °F 83% 29.79 in 10.0 mi West 12.7 mph - N/A   Mostly Cloudy
10:58 PM 68.2 °F 62.6 °F 82% 29.82 in 10.0 mi NW 15.0 mph - 0.00 in   Mostly Cloudy
10:59 PM 68.0 °F 62.6 °F 83% 29.80 in 10.0 mi WNW 12.7 mph - N/A Rain Light Rain
11:09 PM 66.2 °F 60.8 °F 83% 29.81 in 10.0 mi NW 15.0 mph - N/A Rain Light Rain
11:14 PM 66.2 °F 60.8 °F 83% 29.81 in 10.0 mi NW 10.4 mph - N/A   Mostly Cloudy
11:19 PM 66.2 °F 60.8 °F 83% 29.81 in 10.0 mi NW 12.7 mph - N/A   Mostly Cloudy
11:58 PM 64.6 °F 57.7 °F 78% 29.84 in 10.0 mi WNW 16.1 mph 23.0 mph 0.00 in   Partly Cloudy